LOT65A EPWR-EGLL

Flight info

Callsign LOT65A
Flight time N/A
Altitude 28000
Route ULGIL Z348 NAROX/N0452F380 Z348 RENDO DCT KUMER DCT TOLTA DCT ODVIL DCT ABNED L980 JACKO DCT TANET
Aircraft B38M/M-SDE1FGHILORVWXY/HB1

Departure

Time 2026-05-07 17:54
Airport Copernicus Wrocław Airport (EPWR)

Arrival

Time N/A
Airport London Heathrow Airport (EGLL)
Time Latitude Longitude Altitude Speed Heading
2026-05-07 16:49 51.10785 16.88190 414 ft 0 kts 27°
2026-05-07 16:52 51.10812 16.88240 414 ft 0 kts 25°
2026-05-07 16:52 51.10780 16.88254 406 ft 0 kts 20°
2026-05-07 17:41 51.10785 16.88257 406 ft 0 kts 20°
2026-05-07 17:41 51.10782 16.88255 406 ft 2 kts 20°
2026-05-07 17:41 51.10781 16.88255 414 ft 1 kts 20°
2026-05-07 17:42 51.10718 16.88235 415 ft 0 kts 346°
2026-05-07 17:42 51.10723 16.88233 414 ft 0 kts 347°
2026-05-07 17:42 51.10728 16.88233 409 ft 0 kts 357°
2026-05-07 17:43 51.10720 16.88234 414 ft 2 kts 329°
2026-05-07 17:43 51.10718 16.88234 414 ft 2 kts 308°
2026-05-07 17:43 51.10719 16.88234 414 ft 0 kts 308°
2026-05-07 17:44 51.10719 16.88233 414 ft 0 kts 308°
2026-05-07 17:45 51.10720 16.88231 414 ft 1 kts 306°
2026-05-07 17:45 51.10724 16.88216 405 ft 2 kts 294°
2026-05-07 17:46 51.10735 16.88175 412 ft 6 kts 294°
2026-05-07 17:46 51.10765 16.88074 412 ft 16 kts 296°
2026-05-07 17:46 51.10835 16.87848 412 ft 29 kts 297°
2026-05-07 17:46 51.10938 16.87513 415 ft 34 kts 295°
2026-05-07 17:47 51.10929 16.87411 411 ft 0 kts 208°
2026-05-07 17:47 51.10927 16.87410 412 ft 3 kts 208°
2026-05-07 17:47 51.10870 16.87364 415 ft 15 kts 205°
2026-05-07 17:47 51.10737 16.87263 411 ft 27 kts 203°
2026-05-07 17:48 51.10644 16.87361 412 ft 21 kts 115°
2026-05-07 17:48 51.10562 16.87625 409 ft 32 kts 115°
2026-05-07 17:48 51.10452 16.87985 414 ft 34 kts 116°
2026-05-07 17:48 51.10349 16.88324 412 ft 35 kts 115°
2026-05-07 17:49 51.10240 16.88679 412 ft 37 kts 115°
2026-05-07 17:49 51.10127 16.89047 411 ft 37 kts 116°
2026-05-07 17:49 51.10032 16.89356 414 ft 27 kts 116°
2026-05-07 17:49 51.09963 16.89584 414 ft 21 kts 116°
2026-05-07 17:50 51.09942 16.89707 409 ft 6 kts 89°
2026-05-07 17:50 51.09931 16.89754 405 ft 1 kts 152°
2026-05-07 17:50 51.09919 16.89756 409 ft 2 kts 188°
2026-05-07 17:50 51.09911 16.89746 412 ft 1 kts 229°
2026-05-07 17:51 51.09907 16.89728 407 ft 2 kts 261°
2026-05-07 17:51 51.09911 16.89703 413 ft 3 kts 294°
2026-05-07 17:51 51.09926 16.89667 407 ft 5 kts 304°
2026-05-07 17:51 51.09948 16.89619 413 ft 6 kts 304°
2026-05-07 17:52 51.09953 16.89603 411 ft 0 kts 295°
2026-05-07 17:53 51.09954 16.89602 413 ft 0 kts 295°
2026-05-07 17:53 51.09959 16.89585 412 ft 4 kts 296°
2026-05-07 17:53 51.09997 16.89464 412 ft 35 kts 297°
2026-05-07 17:53 51.10234 16.88693 414 ft 117 kts 296°
2026-05-07 17:54 51.10694 16.87237 562 ft 168 kts 297°
2026-05-07 17:54 51.11231 16.85470 1247 ft 187 kts 298°
2026-05-07 17:54 51.11838 16.83588 2202 ft 196 kts 300°
2026-05-07 17:54 51.12442 16.81559 3149 ft 211 kts 287°
2026-05-07 17:55 51.12561 16.79156 3951 ft 230 kts 260°
2026-05-07 17:55 51.11931 16.76730 4765 ft 249 kts 234°
2026-05-07 17:55 51.10592 16.74871 5724 ft 259 kts 213°
2026-05-07 17:55 51.09225 16.73072 6842 ft 262 kts 232°
2026-05-07 17:56 51.08361 16.70481 7906 ft 265 kts 253°
2026-05-07 17:56 51.08183 16.67559 8982 ft 270 kts 274°
2026-05-07 17:56 51.08435 16.64562 9995 ft 276 kts 275°
2026-05-07 17:56 51.08679 16.61474 10721 ft 290 kts 275°
2026-05-07 17:57 51.08928 16.58215 11326 ft 306 kts 275°
2026-05-07 17:57 51.09102 16.55937 11794 ft 314 kts 275°
2026-05-07 17:57 51.09459 16.51331 13028 ft 319 kts 275°
2026-05-07 17:57 51.09735 16.47792 13886 ft 325 kts 275°
2026-05-07 17:58 51.10008 16.44291 14662 ft 328 kts 275°
2026-05-07 17:58 51.10286 16.40705 15440 ft 332 kts 275°
2026-05-07 17:58 51.10570 16.37038 16211 ft 336 kts 274°
2026-05-07 17:58 51.10857 16.33323 16984 ft 340 kts 274°
2026-05-07 17:59 51.11146 16.29563 17740 ft 344 kts 274°
2026-05-07 17:59 51.11437 16.25755 18449 ft 348 kts 274°
2026-05-07 17:59 51.11731 16.21912 19072 ft 352 kts 274°
2026-05-07 17:59 51.12026 16.18023 19691 ft 356 kts 274°
2026-05-07 18:00 51.12323 16.14094 20307 ft 359 kts 274°
2026-05-07 18:00 51.12621 16.10124 20917 ft 363 kts 274°
2026-05-07 18:00 51.12922 16.06118 21520 ft 366 kts 274°
2026-05-07 18:00 51.13224 16.02068 22119 ft 370 kts 273°
2026-05-07 18:01 51.13526 15.97994 22712 ft 373 kts 273°
2026-05-07 18:01 51.13832 15.93859 23290 ft 377 kts 273°
2026-05-07 18:01 51.14138 15.89693 23798 ft 380 kts 273°
2026-05-07 18:01 51.14301 15.87461 24056 ft 382 kts 273°
2026-05-07 18:02 51.14770 15.81029 24814 ft 386 kts 273°
2026-05-07 18:02 51.15077 15.76783 25291 ft 388 kts 272°
2026-05-07 18:02 51.15386 15.72499 25768 ft 391 kts 272°
2026-05-07 18:03 51.15696 15.68176 26269 ft 392 kts 272°
2026-05-07 18:03 51.16005 15.63867 26845 ft 391 kts 272°
2026-05-07 18:03 51.16311 15.59568 27445 ft 390 kts 272°
2026-05-07 18:03 51.16615 15.55283 27933 ft 391 kts 272°
2026-05-07 18:04 51.16918 15.50982 28032 ft 389 kts 272°
2026-05-07 18:04 51.17513 15.42450 28022 ft 387 kts 272°
2026-05-07 18:05 51.18102 15.33902 28020 ft 388 kts 272°
2026-05-07 18:05 51.18680 15.25421 28019 ft 389 kts 273°
2026-05-07 18:06 51.19260 15.16826 28020 ft 389 kts 273°
2026-05-07 18:06 51.19832 15.08235 28028 ft 390 kts 273°
2026-05-07 18:07 51.20415 14.99635 28031 ft 390 kts 274°
2026-05-07 18:07 51.20929 14.92428 28030 ft 391 kts 274°
2026-05-07 18:08 51.21535 14.83808 28032 ft 391 kts 274°
2026-05-07 18:08 51.22134 14.75177 28035 ft 392 kts 274°
2026-05-07 18:09 51.22728 14.66537 28036 ft 392 kts 275°
2026-05-07 18:09 51.23316 14.57883 28041 ft 392 kts 275°
2026-05-07 18:10 51.23895 14.49284 28051 ft 392 kts 275°
2026-05-07 18:10 51.24470 14.40636 28041 ft 393 kts 275°
2026-05-07 18:11 51.25042 14.31953 28044 ft 392 kts 275°
2026-05-07 18:11 51.25606 14.23285 28049 ft 393 kts 275°
2026-05-07 18:12 51.26164 14.14616 28051 ft 393 kts 275°
2026-05-07 18:12 51.26715 14.05943 28051 ft 392 kts 275°
2026-05-07 18:13 51.27260 13.97272 28054 ft 392 kts 275°
2026-05-07 18:13 51.27823 13.88605 28048 ft 392 kts 278°
2026-05-07 18:14 51.28662 13.79989 28051 ft 392 kts 278°
2026-05-07 18:14 51.29468 13.71353 28052 ft 393 kts 278°
2026-05-07 18:15 51.30264 13.62716 28045 ft 393 kts 279°
2026-05-07 18:15 51.31023 13.54406 28055 ft 394 kts 279°
2026-05-07 18:16 51.31807 13.45741 28055 ft 394 kts 279°
2026-05-07 18:16 51.32586 13.37077 28062 ft 394 kts 279°
2026-05-07 18:17 51.33357 13.28412 28074 ft 394 kts 279°
2026-05-07 18:17 51.34121 13.19748 28073 ft 393 kts 279°
2026-05-07 18:18 51.34880 13.11080 28065 ft 393 kts 279°
2026-05-07 18:18 51.35630 13.02429 28079 ft 393 kts 279°
2026-05-07 18:19 51.36375 12.93765 28073 ft 392 kts 279°
2026-05-07 18:19 51.37111 12.85116 28077 ft 392 kts 279°
2026-05-07 18:20 51.37842 12.76455 28074 ft 392 kts 279°
2026-05-07 18:20 51.38565 12.67813 28075 ft 392 kts 279°
2026-05-07 18:21 51.39283 12.59158 28075 ft 392 kts 279°
2026-05-07 18:21 51.39994 12.50492 28074 ft 392 kts 279°
2026-05-07 18:22 51.40698 12.41842 28071 ft 392 kts 279°
2026-05-07 18:22 51.41396 12.33183 28075 ft 392 kts 279°
2026-05-07 18:23 51.42086 12.24537 28077 ft 392 kts 279°
2026-05-07 18:23 51.42771 12.15881 28074 ft 391 kts 278°
2026-05-07 18:24 51.43448 12.07245 28076 ft 391 kts 278°
2026-05-07 18:24 51.44118 11.98609 28076 ft 390 kts 278°
2026-05-07 18:25 51.44776 11.90040 28075 ft 389 kts 278°
2026-05-07 18:25 51.45430 11.81441 28082 ft 389 kts 278°
2026-05-07 18:26 51.46077 11.72852 28082 ft 388 kts 278°
2026-05-07 18:26 51.46719 11.64239 28077 ft 388 kts 277°
2026-05-07 18:27 51.47353 11.55647 28082 ft 387 kts 277°
2026-05-07 18:27 51.47979 11.47077 28086 ft 386 kts 277°
2026-05-07 18:28 51.48597 11.38532 28085 ft 386 kts 277°
2026-05-07 18:28 51.49209 11.29986 28085 ft 385 kts 277°
2026-05-07 18:29 51.49813 11.21463 28086 ft 384 kts 277°
2026-05-07 18:29 51.50410 11.12931 28090 ft 384 kts 277°
2026-05-07 18:30 51.51001 11.04418 28088 ft 384 kts 277°
2026-05-07 18:30 51.51585 10.95896 28088 ft 384 kts 276°
2026-05-07 18:31 51.52164 10.87393 28088 ft 383 kts 276°
2026-05-07 18:31 51.52738 10.78888 28084 ft 383 kts 276°
2026-05-07 18:32 51.53304 10.70407 28084 ft 382 kts 276°
2026-05-07 18:32 51.53999 10.61932 28080 ft 382 kts 284°
2026-05-07 18:33 51.55187 10.53596 28082 ft 383 kts 277°
2026-05-07 18:33 51.55622 10.45064 28093 ft 383 kts 274°
2026-05-07 18:34 51.55990 10.36513 28088 ft 383 kts 274°
2026-05-07 18:34 51.56354 10.27973 28088 ft 383 kts 274°
2026-05-07 18:35 51.56715 10.19423 28086 ft 383 kts 274°
2026-05-07 18:35 51.57332 10.10921 28089 ft 383 kts 278°
2026-05-07 18:36 51.58036 10.02422 28089 ft 384 kts 277°
2026-05-07 18:36 51.58646 9.93956 28090 ft 384 kts 276°
2026-05-07 18:37 51.59232 9.85349 28091 ft 384 kts 276°
2026-05-07 18:37 51.59799 9.76868 28093 ft 384 kts 276°
2026-05-07 18:38 51.60367 9.68268 28093 ft 384 kts 276°
2026-05-07 18:38 51.60922 9.59776 28099 ft 384 kts 276°
2026-05-07 18:39 51.61474 9.51230 28094 ft 384 kts 276°
2026-05-07 18:39 51.62020 9.42673 28102 ft 384 kts 276°
2026-05-07 18:40 51.62559 9.34127 28093 ft 384 kts 276°
2026-05-07 18:40 51.63092 9.25568 28102 ft 384 kts 276°
2026-05-07 18:41 51.63619 9.17023 28102 ft 384 kts 276°
2026-05-07 18:41 51.64139 9.08477 28096 ft 384 kts 275°
2026-05-07 18:42 51.64653 8.99928 28094 ft 384 kts 275°
2026-05-07 18:42 51.65158 8.91430 28102 ft 383 kts 275°
2026-05-07 18:43 51.65662 8.82829 28105 ft 383 kts 275°
2026-05-07 18:43 51.66157 8.74286 28096 ft 383 kts 275°
2026-05-07 18:44 51.66645 8.65738 28100 ft 383 kts 275°
2026-05-07 18:44 51.67128 8.57197 28100 ft 383 kts 275°
2026-05-07 18:45 51.67604 8.48660 28105 ft 383 kts 275°
2026-05-07 18:45 51.68073 8.40117 28098 ft 382 kts 275°
2026-05-07 18:46 51.68535 8.31593 28096 ft 382 kts 275°
2026-05-07 18:46 51.68992 8.23053 28096 ft 382 kts 275°
2026-05-07 18:47 51.69439 8.14584 28097 ft 382 kts 275°
2026-05-07 18:47 51.69882 8.06061 28097 ft 381 kts 274°
2026-05-07 18:48 51.70318 7.97549 28096 ft 381 kts 274°
2026-05-07 18:48 51.70746 7.89090 28092 ft 381 kts 274°
2026-05-07 18:49 51.71174 7.80505 28088 ft 381 kts 274°
2026-05-07 18:49 51.71591 7.72001 28084 ft 380 kts 274°
2026-05-07 18:50 51.72003 7.63489 28085 ft 380 kts 274°
2026-05-07 18:50 51.72388 7.55002 28081 ft 379 kts 270°
2026-05-07 18:51 51.71928 7.46546 28092 ft 379 kts 263°
2026-05-07 18:51 51.71331 7.38150 28086 ft 379 kts 263°
2026-05-07 18:52 51.70732 7.29720 28080 ft 378 kts 263°
2026-05-07 18:52 51.70234 7.22676 28085 ft 378 kts 263°
2026-05-07 18:53 51.69638 7.14251 28076 ft 378 kts 263°
2026-05-07 18:53 51.69049 7.05904 28086 ft 377 kts 263°
2026-05-07 18:54 51.68460 6.97519 28076 ft 376 kts 263°
2026-05-07 18:54 51.67872 6.89129 28076 ft 376 kts 263°
2026-05-07 18:55 51.67283 6.80759 28076 ft 376 kts 263°
2026-05-07 18:55 51.66757 6.73257 28070 ft 376 kts 263°
2026-05-07 18:56 51.66168 6.64871 28069 ft 376 kts 263°
2026-05-07 18:56 51.65578 6.56512 28069 ft 375 kts 263°
2026-05-07 18:57 51.64989 6.48147 28072 ft 375 kts 263°
2026-05-07 18:57 51.64402 6.39801 28072 ft 375 kts 263°
2026-05-07 18:58 51.63811 6.31457 28078 ft 375 kts 263°
2026-05-07 18:58 51.63217 6.23103 28074 ft 375 kts 263°
2026-05-07 18:59 51.62625 6.14761 28074 ft 375 kts 263°
2026-05-07 18:59 51.62034 6.06425 28074 ft 375 kts 263°
2026-05-07 19:00 51.61442 5.98097 28076 ft 375 kts 263°
2026-05-07 19:00 51.60884 5.89753 28076 ft 374 kts 263°
2026-05-07 19:01 51.60326 5.81418 28068 ft 374 kts 263°
2026-05-07 19:01 51.59774 5.73148 28075 ft 374 kts 263°
2026-05-07 19:02 51.59216 5.64828 28087 ft 374 kts 263°
2026-05-07 19:02 51.58657 5.56514 28077 ft 374 kts 263°
2026-05-07 19:03 51.58183 5.48183 28066 ft 374 kts 272°
2026-05-07 19:03 51.59166 5.39940 28079 ft 376 kts 282°
2026-05-07 19:04 51.60354 5.31748 28079 ft 376 kts 282°
2026-05-07 19:04 51.61537 5.23562 28377 ft 374 kts 281°
2026-05-07 19:04 51.62130 5.19466 28778 ft 376 kts 281°
2026-05-07 19:05 51.62723 5.15370 29188 ft 376 kts 281°
2026-05-07 19:05 51.63316 5.11286 29604 ft 374 kts 281°
2026-05-07 19:05 51.63910 5.07198 30027 ft 373 kts 282°
2026-05-07 19:05 51.64502 5.03131 30398 ft 372 kts 281°
2026-05-07 19:06 51.65086 4.99124 30751 ft 372 kts 281°
2026-05-07 19:06 51.66258 4.91045 31477 ft 371 kts 281°
2026-05-07 19:06 51.66849 4.86974 31847 ft 370 kts 281°
2026-05-07 19:07 51.67437 4.82922 32092 ft 372 kts 281°
2026-05-07 19:07 51.68023 4.78871 32086 ft 369 kts 281°
2026-05-07 19:07 51.69185 4.70832 32077 ft 368 kts 281°
2026-05-07 19:08 51.70346 4.62765 32076 ft 368 kts 281°
2026-05-07 19:08 51.71502 4.54715 32079 ft 368 kts 281°
2026-05-07 19:09 51.72649 4.46720 32076 ft 368 kts 281°
2026-05-07 19:09 51.73801 4.38672 32078 ft 368 kts 281°
2026-05-07 19:10 51.74951 4.30620 32078 ft 368 kts 281°
2026-05-07 19:10 51.76101 4.22575 32084 ft 368 kts 281°
2026-05-07 19:11 51.77247 4.14528 32081 ft 368 kts 281°
2026-05-07 19:11 51.78382 4.06531 32082 ft 367 kts 281°
2026-05-07 19:12 51.79526 3.98482 32091 ft 367 kts 281°
2026-05-07 19:12 51.80667 3.90432 32098 ft 367 kts 281°
2026-05-07 19:13 51.81802 3.82389 32096 ft 367 kts 281°
2026-05-07 19:13 51.82936 3.74352 32099 ft 367 kts 281°
2026-05-07 19:14 51.83864 3.66257 32096 ft 366 kts 276°
2026-05-07 19:14 51.84309 3.58060 32098 ft 365 kts 272°
2026-05-07 19:15 51.84513 3.49859 32099 ft 365 kts 270°
2026-05-07 19:15 51.84269 3.41698 32101 ft 364 kts 264°
2026-05-07 19:16 51.83867 3.33541 32102 ft 364 kts 265°
2026-05-07 19:16 51.83489 3.25435 32099 ft 363 kts 265°
2026-05-07 19:17 51.83110 3.17284 32095 ft 363 kts 265°
2026-05-07 19:17 51.82726 3.09141 32096 ft 363 kts 265°
2026-05-07 19:18 51.82333 3.00933 31899 ft 376 kts 264°
2026-05-07 19:18 51.82129 2.96715 31622 ft 385 kts 264°
2026-05-07 19:18 51.81993 2.93910 31452 ft 386 kts 264°
2026-05-07 19:19 51.81783 2.89579 31218 ft 385 kts 265°
2026-05-07 19:19 51.81571 2.85273 30977 ft 384 kts 265°
2026-05-07 19:19 51.81422 2.82266 30809 ft 383 kts 265°
2026-05-07 19:19 51.81221 2.78267 30589 ft 382 kts 264°
2026-05-07 19:20 51.81006 2.73998 30357 ft 380 kts 264°
2026-05-07 19:20 51.80790 2.69753 30118 ft 379 kts 264°
2026-05-07 19:20 51.80583 2.65699 29851 ft 378 kts 264°
2026-05-07 19:20 51.80365 2.61471 29578 ft 376 kts 264°
2026-05-07 19:21 51.80147 2.57253 29302 ft 375 kts 264°
2026-05-07 19:21 51.79928 2.53057 29032 ft 374 kts 264°
2026-05-07 19:21 51.79709 2.48874 28768 ft 373 kts 264°
2026-05-07 19:21 51.79489 2.44706 28501 ft 371 kts 264°
2026-05-07 19:22 51.79269 2.40572 28241 ft 369 kts 264°
2026-05-07 19:22 51.79048 2.36453 28081 ft 368 kts 264°
2026-05-07 19:22 51.78602 2.28212 28081 ft 368 kts 264°
2026-05-07 19:23 51.78378 2.24094 27725 ft 367 kts 264°
2026-05-07 19:23 51.78152 2.19986 27261 ft 367 kts 264°
2026-05-07 19:23 51.77925 2.15878 26806 ft 368 kts 264°
2026-05-07 19:23 51.77694 2.11750 26360 ft 370 kts 264°
2026-05-07 19:24 51.77462 2.07603 25915 ft 371 kts 264°
2026-05-07 19:24 51.77228 2.03450 25480 ft 372 kts 264°
2026-05-07 19:24 51.76993 1.99309 25060 ft 370 kts 264°
2026-05-07 19:24 51.76757 1.95178 24642 ft 368 kts 264°
2026-05-07 19:25 51.76521 1.91069 24230 ft 367 kts 264°
2026-05-07 19:25 51.76287 1.87030 23825 ft 365 kts 264°
2026-05-07 19:25 51.76050 1.82957 23381 ft 363 kts 264°
2026-05-07 19:25 51.75814 1.78912 22904 ft 361 kts 264°
2026-05-07 19:26 51.75577 1.74882 22429 ft 359 kts 264°
2026-05-07 19:26 51.75339 1.70876 21965 ft 357 kts 264°
2026-05-07 19:26 51.75102 1.66902 21507 ft 355 kts 264°
2026-05-07 19:26 51.74865 1.62947 21064 ft 353 kts 264°
2026-05-07 19:27 51.74620 1.59020 20613 ft 351 kts 263°
2026-05-07 19:27 51.74372 1.55110 20173 ft 350 kts 263°
2026-05-07 19:27 51.74123 1.51213 19741 ft 348 kts 263°
2026-05-07 19:27 51.73874 1.47323 19311 ft 348 kts 263°
2026-05-07 19:28 51.73430 1.43509 18867 ft 346 kts 248°
2026-05-07 19:28 51.72170 1.40232 18455 ft 345 kts 228°
2026-05-07 19:28 51.70556 1.37385 17990 ft 344 kts 228°
2026-05-07 19:28 51.68952 1.34527 17519 ft 343 kts 228°
2026-05-07 19:29 51.67346 1.31686 17053 ft 343 kts 227°
2026-05-07 19:29 51.65736 1.28850 16595 ft 342 kts 227°
2026-05-07 19:29 51.64134 1.26033 16149 ft 341 kts 227°
2026-05-07 19:29 51.62552 1.23255 15712 ft 340 kts 227°
2026-05-07 19:30 51.60958 1.20462 15272 ft 339 kts 227°
2026-05-07 19:30 51.59369 1.17678 14836 ft 338 kts 227°
2026-05-07 19:30 51.58010 1.14628 14393 ft 338 kts 246°
2026-05-07 19:30 51.57497 1.10950 13971 ft 339 kts 265°
2026-05-07 19:31 51.57659 1.07185 13518 ft 339 kts 276°
2026-05-07 19:31 51.57980 1.03417 13044 ft 338 kts 276°
2026-05-07 19:31 51.58282 0.99679 12571 ft 338 kts 276°
2026-05-07 19:31 51.58578 0.95943 12120 ft 337 kts 276°
2026-05-07 19:32 51.58869 0.92220 11669 ft 335 kts 276°
2026-05-07 19:32 51.59158 0.88498 11210 ft 334 kts 276°
2026-05-07 19:32 51.59444 0.84786 10777 ft 333 kts 275°
2026-05-07 19:32 51.59728 0.81097 10344 ft 332 kts 275°
2026-05-07 19:33 51.59947 0.77408 9905 ft 330 kts 269°
2026-05-07 19:33 51.59673 0.73777 9425 ft 326 kts 254°
2026-05-07 19:33 51.59016 0.70297 8972 ft 324 kts 251°
2026-05-07 19:33 51.58457 0.66792 8505 ft 324 kts 262°
2026-05-07 19:34 51.58458 0.63225 8323 ft 315 kts 273°
2026-05-07 19:34 51.58485 0.59783 8249 ft 301 kts 271°
2026-05-07 19:34 51.58778 0.56517 8172 ft 290 kts 281°
2026-05-07 19:34 51.59074 0.54444 8162 ft 281 kts 282°
2026-05-07 19:35 51.59517 0.51450 8151 ft 270 kts 282°
2026-05-07 19:35 51.59948 0.48545 8114 ft 267 kts 282°
2026-05-07 19:35 51.60379 0.45636 8084 ft 266 kts 282°
2026-05-07 19:35 51.60946 0.41798 8078 ft 266 kts 282°
2026-05-07 19:36 51.61235 0.39833 8077 ft 266 kts 282°
2026-05-07 19:36 51.61658 0.36939 8075 ft 266 kts 282°
2026-05-07 19:36 51.62097 0.34041 8074 ft 267 kts 285°
2026-05-07 19:36 51.62666 0.31198 8076 ft 267 kts 286°
2026-05-07 19:37 51.63157 0.28362 8077 ft 266 kts 283°
2026-05-07 19:37 51.63565 0.25451 8077 ft 266 kts 280°
2026-05-07 19:37 51.63963 0.22566 8068 ft 258 kts 282°
2026-05-07 19:37 51.64375 0.19734 8080 ft 268 kts 282°
2026-05-07 19:38 51.64800 0.16718 8059 ft 285 kts 278°
2026-05-07 19:38 51.64899 0.13433 8060 ft 301 kts 267°
2026-05-07 19:38 51.64791 0.09973 8053 ft 318 kts 266°
2026-05-07 19:38 51.64661 0.06345 8057 ft 328 kts 266°
2026-05-07 19:39 51.64594 0.04495 8058 ft 331 kts 266°
2026-05-07 19:39 51.64551 0.03308 8056 ft 332 kts 266°
2026-05-07 19:39 51.64417 -0.00365 8070 ft 333 kts 266°
2026-05-07 19:39 51.64279 -0.04137 8073 ft 334 kts 265°
2026-05-07 19:40 51.64142 -0.07847 8050 ft 328 kts 266°
2026-05-07 19:40 51.64012 -0.11426 8051 ft 313 kts 266°
2026-05-07 19:40 51.63886 -0.14851 8055 ft 297 kts 266°
2026-05-07 19:40 51.63769 -0.18084 8055 ft 283 kts 266°
2026-05-07 19:41 51.63655 -0.21196 8056 ft 275 kts 266°
2026-05-07 19:41 51.63542 -0.24263 8052 ft 274 kts 266°
2026-05-07 19:41 51.63430 -0.27280 8051 ft 274 kts 266°
2026-05-07 19:41 51.63315 -0.30355 8049 ft 274 kts 266°
2026-05-07 19:42 51.63200 -0.33411 8040 ft 274 kts 266°
2026-05-07 19:42 51.63085 -0.36479 8054 ft 274 kts 266°
2026-05-07 19:42 51.62966 -0.39540 8045 ft 274 kts 266°
2026-05-07 19:42 51.62848 -0.42597 8049 ft 274 kts 266°
2026-05-07 19:43 51.62728 -0.45668 7941 ft 273 kts 266°
2026-05-07 19:43 51.62606 -0.48691 7661 ft 271 kts 266°
2026-05-07 19:43 51.62481 -0.51719 7285 ft 272 kts 266°
2026-05-07 19:43 51.62352 -0.54750 6963 ft 271 kts 266°
2026-05-07 19:44 51.62194 -0.57754 6639 ft 270 kts 260°
2026-05-07 19:44 51.61705 -0.60678 6318 ft 269 kts 251°
2026-05-07 19:44 51.61097 -0.63517 5984 ft 269 kts 251°
2026-05-07 19:44 51.60390 -0.66290 5632 ft 268 kts 237°
2026-05-07 19:45 51.59081 -0.68365 5288 ft 266 kts 209°
2026-05-07 19:45 51.57339 -0.69216 4954 ft 263 kts 181°
2026-05-07 19:45 51.55561 -0.68769 4624 ft 254 kts 161°
2026-05-07 19:45 51.54073 -0.67390 4280 ft 244 kts 138°
2026-05-07 19:46 51.52723 -0.65861 4005 ft 234 kts 159°
2026-05-07 19:46 51.51184 -0.65635 3957 ft 213 kts 191°
2026-05-07 19:46 51.49803 -0.66051 3980 ft 197 kts 178°
2026-05-07 19:46 51.48490 -0.65667 3989 ft 193 kts 156°
2026-05-07 19:47 51.47357 -0.64535 3994 ft 192 kts 135°
2026-05-07 19:47 51.46576 -0.62822 3991 ft 192 kts 114°
2026-05-07 19:47 51.46246 -0.60755 3998 ft 192 kts 92°
2026-05-07 19:47 51.46414 -0.58641 3997 ft 193 kts 71°
2026-05-07 19:48 51.47058 -0.56757 3992 ft 194 kts 50°
2026-05-07 19:48 51.48094 -0.55384 3991 ft 196 kts 29°
2026-05-07 19:48 51.49378 -0.54696 3986 ft 197 kts
2026-05-07 19:48 51.50745 -0.54596 4019 ft 199 kts
2026-05-07 19:49 51.52153 -0.54605 4035 ft 200 kts
2026-05-07 19:49 51.53537 -0.54621 4032 ft 200 kts
2026-05-07 19:49 51.54930 -0.54658 4021 ft 200 kts 355°
2026-05-07 19:49 51.56260 -0.55245 3981 ft 200 kts 333°
2026-05-07 19:50 51.57362 -0.56539 3980 ft 200 kts 312°
2026-05-07 19:50 51.58119 -0.58398 3989 ft 200 kts 291°
2026-05-07 19:50 51.58432 -0.60566 3996 ft 200 kts 274°
2026-05-07 19:50 51.58501 -0.62829 4011 ft 201 kts 271°
2026-05-07 19:51 51.58539 -0.65063 3997 ft 200 kts 271°
2026-05-07 19:51 51.58576 -0.67310 3995 ft 200 kts 270°
2026-05-07 19:51 51.58484 -0.69534 3982 ft 199 kts 255°
2026-05-07 19:51 51.57946 -0.71520 3981 ft 197 kts 233°
2026-05-07 19:52 51.56991 -0.73076 3990 ft 196 kts 212°
2026-05-07 19:52 51.55763 -0.73961 3994 ft 194 kts 191°
2026-05-07 19:52 51.54419 -0.74067 3998 ft 193 kts 170°